STARLINK-1421 (45709 NORAD) Tracking and Keplerian Element Data

This shows tracking and keplerian element data for the satellite.

Feedback or suggestion? Click here.




ElementValue
Catalog45709
NameSTARLINK-1421
Epoch Orbit1075
Epoch Day218.91667824
Epoch Year2020
RAAN221.2954
Inclination53
Eccentricity0.000161
Argument of Perigee36.4517
Mean Anonmoly238.5583
Mean Motion15.62743298
Decay Rate0.0005548
L11 45709U 20035BE 20218.91667824 .00055480 00000-0 60781-3 0 9998
L22 45709 53.0000 221.2954 0001610 36.4517 238.5583 15.62743298 10758

Live tracking and technical data element details for STARLINK-1421 (NORAD 45709). STARLINK-1421 can be tracked NOW for your location showing map with azimuth and elevation plus other details from your city location.

Track the satellite on the map from your city or location and see movement details for azimuth, elevation, latitude, longitude, range, height, and movement on the map or in text.







IsCatalogInMostPopularTable: catalog: 45709, numindb: 10
Update: records affected: 1



GetName: 45709 STARLINK-1421

Hit Count: updated at: Sat, 08 Aug 2020 00:58:36 GMT